| time (UTC) | temp F | wind direction | speed MPH | gust MPH | rain 1hr in | rain 24hr in | rain mn in | humidity % | barometer mb |
| 20260906225901 | 76 | 155 | 6.0 | 8.0 | 0.00 | 0.00 | 0.00 | 28 | 1019.1 |
| 20260906225357 | 76 | 130 | 6.0 | 8.0 | 0.00 | 0.00 | 0.00 | 26 | 1019.5 |
| 20260906224853 | 77 | 185 | 7.0 | 9.0 | 0.00 | 0.00 | 0.00 | 26 | 1019.3 |
| 20260906224349 | 77 | 144 | 8.0 | 9.0 | 0.00 | 0.00 | 0.00 | 26 | 1019.2 |
| 20260906223845 | 77 | 172 | 8.0 | 9.0 | 0.00 | 0.00 | 0.00 | 26 | 1019.3 |
| 20260906223341 | 77 | 167 | 9.0 | 11.0 | 0.00 | 0.00 | 0.00 | 26 | 1019.6 |
| 20260906222838 | 77 | 203 | 9.0 | 10.0 | 0.00 | 0.00 | 0.00 | 25 | 1019.3 |
| 20260906222332 | 77 | 168 | 8.0 | 9.0 | 0.00 | 0.00 | 0.00 | 26 | 1019.3 |
| 20260906221830 | 78 | 126 | 9.0 | 10.0 | 0.00 | 0.00 | 0.00 | 24 | 1019.2 |
| 20260906221330 | 78 | 204 | 7.0 | 8.0 | 0.00 | 0.00 | 0.00 | 24 | 1019.5 |
| 20260906220825 | 77 | 214 | 6.0 | 8.0 | 0.00 | 0.00 | 0.00 | 24 | 1019.5 |
| 20260906220321 | 78 | 176 | 9.0 | 10.0 | 0.00 | 0.00 | 0.00 | 24 | 1019.5 |
| 20260906215819 | 78 | 175 | 11.0 | 13.0 | 0.00 | 0.00 | 0.00 | 25 | 1019.3 |
| 20260906215314 | 80 | 148 | 10.0 | 11.0 | 0.00 | 0.00 | 0.00 | 23 | 1019.5 |
| 20260906214812 | 79 | 159 | 12.0 | 16.0 | 0.00 | 0.00 | 0.00 | 23 | 1019.7 |
| 20260906214307 | 76 | 158 | 5.0 | 8.0 | 0.00 | 0.00 | 0.00 | 24 | 1019.8 |
| 20260906213807 | 78 | 207 | 12.0 | 14.0 | 0.00 | 0.00 | 0.00 | 23 | 1020.1 |
| 20260906213306 | 78 | 226 | 11.0 | 16.0 | 0.00 | 0.00 | 0.00 | 23 | 1020.2 |
| 20260906212758 | 77 | 185 | 6.0 | 8.0 | 0.00 | 0.00 | 0.00 | 23 | 1020.1 |
| 20260906212253 | 78 | 189 | 9.0 | 10.0 | 0.00 | 0.00 | 0.00 | 24 | 1019.9 |
| 20260906211753 | 78 | 187 | 12.0 | 14.0 | 0.00 | 0.00 | 0.00 | 23 | 1020.3 |
| 20260906211248 | 78 | 228 | 12.0 | 14.0 | 0.00 | 0.00 | 0.00 | 23 | 1020.3 |
| 20260906210743 | 78 | 177 | 11.0 | 14.0 | 0.00 | 0.00 | 0.00 | 23 | 1020.2 |
| 20260906210238 | 78 | 203 | 14.0 | 16.0 | 0.00 | 0.00 | 0.00 | 23 | 1020.3 |
| 20260906205733 | 77 | 188 | 10.0 | 13.0 | 0.00 | 0.00 | 0.00 | 23 | 1020.4 |
| 20260906205231 | 79 | 189 | 9.0 | 10.0 | 0.00 | 0.00 | 0.00 | 24 | 1020.3 |
| 20260906204730 | 77 | 142 | 8.0 | 9.0 | 0.00 | 0.00 | 0.00 | 24 | 1020.4 |
| 20260906204229 | 77 | 148 | 9.0 | 10.0 | 0.00 | 0.00 | 0.00 | 24 | 1020.7 |
| 20260906203729 | 76 | 174 | 12.0 | 14.0 | 0.00 | 0.00 | 0.00 | 25 | 1020.7 |
| 20260906203224 | 77 | 210 | 10.0 | 13.0 | 0.00 | 0.00 | 0.00 | 23 | 1020.4 |
| 20260906202721 | 77 | 176 | 11.0 | 14.0 | 0.00 | 0.00 | 0.00 | 25 | 1020.4 |
| 20260906202220 | 77 | 150 | 9.0 | 11.0 | 0.00 | 0.00 | 0.00 | 25 | 1020.3 |
| 20260906201715 | 77 | 177 | 8.0 | 9.0 | 0.00 | 0.00 | 0.00 | 25 | 1020.4 |
| 20260906201215 | 76 | 163 | 14.0 | 17.0 | 0.00 | 0.00 | 0.00 | 26 | 1020.6 |
| 20260906200711 | 78 | 191 | 7.0 | 9.0 | 0.00 | 0.00 | 0.00 | 24 | 1020.8 |
| 20260906200206 | 76 | 106 | 12.0 | 14.0 | 0.00 | 0.00 | 0.00 | 25 | 1020.6 |
| 20260906195656 | 77 | 153 | 9.0 | 11.0 | 0.00 | 0.00 | 0.00 | 25 | 1020.6 |
| 20260906195153 | 78 | 194 | 11.0 | 13.0 | 0.00 | 0.00 | 0.00 | 25 | 1020.8 |
| 20260906194648 | 78 | 204 | 6.0 | 8.0 | 0.00 | 0.00 | 0.00 | 24 | 1020.4 |
| 20260906194143 | 76 | 216 | 9.0 | 11.0 | 0.00 | 0.00 | 0.00 | 25 | 1020.4 |
| 20260906193638 | 76 | 180 | 9.0 | 9.0 | 0.00 | 0.00 | 0.00 | 25 | 1020.8 |
| 20260906193133 | 75 | 149 | 8.0 | 10.0 | 0.00 | 0.00 | 0.00 | 26 | 1020.8 |
| 20260906192629 | 75 | 189 | 8.0 | 9.0 | 0.00 | 0.00 | 0.00 | 26 | 1021.0 |
| 20260906192128 | 75 | 163 | 9.0 | 14.0 | 0.00 | 0.00 | 0.00 | 26 | 1021.0 |
| 20260906191624 | 75 | 200 | 6.0 | 8.0 | 0.00 | 0.00 | 0.00 | 26 | 1021.4 |
| 20260906191122 | 76 | 161 | 10.0 | 11.0 | 0.00 | 0.00 | 0.00 | 26 | 1021.2 |
| 20260906190617 | 74 | 112 | 11.0 | 13.0 | 0.00 | 0.00 | 0.00 | 26 | 1021.5 |
| 20260906190112 | 75 | 170 | 8.0 | 10.0 | 0.00 | 0.00 | 0.00 | 26 | 1021.8 |
| 20260906185610 | 75 | 133 | 3.0 | 3.0 | 0.00 | 0.00 | 0.00 | 26 | 1021.5 |
| 20260906185109 | 75 | 121 | 11.0 | 11.0 | 0.00 | 0.00 | 0.00 | 26 | 1021.9 |
| 20260906184604 | 75 | 179 | 6.0 | 10.0 | 0.00 | 0.00 | 0.00 | 26 | 1021.8 |
| 20260906184100 | 75 | 190 | 12.0 | 14.0 | 0.00 | 0.00 | 0.00 | 26 | 1022.2 |
| 20260906183555 | 75 | 123 | 4.0 | 6.0 | 0.00 | 0.00 | 0.00 | 25 | 1022.0 |
| 20260906183052 | 74 | 130 | 4.0 | 6.0 | 0.00 | 0.00 | 0.00 | 27 | 1022.2 |
| 20260906182552 | 74 | 140 | 8.0 | 10.0 | 0.00 | 0.00 | 0.00 | 27 | 1022.3 |
| 20260906182048 | 74 | 129 | 8.0 | 10.0 | 0.00 | 0.00 | 0.00 | 27 | 1022.4 |
| 20260906181543 | 74 | 111 | 11.0 | 15.0 | 0.00 | 0.00 | 0.00 | 27 | 1022.4 |
| 20260906181039 | 72 | 170 | 9.0 | 10.0 | 0.00 | 0.00 | 0.00 | 28 | 1022.4 |
| 20260906180534 | 74 | 127 | 7.0 | 9.0 | 0.00 | 0.00 | 0.00 | 28 | 1022.5 |
| 20260906180033 | 73 | 187 | 10.0 | 11.0 | 0.00 | 0.00 | 0.00 | 27 | 1022.3 |
| 20260906175527 | 73 | 167 | 6.0 | 7.0 | 0.00 | 0.00 | 0.00 | 27 | 1022.5 |
| 20260906175027 | 73 | 146 | 11.0 | 14.0 | 0.00 | 0.00 | 0.00 | 27 | 1022.6 |
| 20260906174525 | 73 | 184 | 10.0 | 13.0 | 0.00 | 0.00 | 0.00 | 29 | 1022.6 |
| 20260906174020 | 73 | 154 | 9.0 | 11.0 | 0.00 | 0.00 | 0.00 | 28 | 1022.9 |
| 20260906173515 | 72 | 127 | 6.0 | 8.0 | 0.00 | 0.00 | 0.00 | 30 | 1022.8 |
| 20260906173011 | 71 | 140 | 3.0 | 3.0 | 0.00 | 0.00 | 0.00 | 29 | 1022.9 |
| 20260906172510 | 71 | 150 | 5.0 | 6.0 | 0.00 | 0.00 | 0.00 | 31 | 1023.0 |
| 20260906172006 | 71 | 144 | 5.0 | 7.0 | 0.00 | 0.00 | 0.00 | 30 | 1023.0 |
| 20260906171500 | 71 | 124 | 4.0 | 6.0 | 0.00 | 0.00 | 0.00 | 31 | 1023.0 |
| 20260906170955 | 69 | 147 | 3.0 | 6.0 | 0.00 | 0.00 | 0.00 | 33 | 1023.3 |
| 20260906170452 | 70 | 142 | 6.0 | 7.0 | 0.00 | 0.00 | 0.00 | 32 | 1023.3 |
| 20260906165949 | 69 | 175 | 2.0 | 3.0 | 0.00 | 0.00 | 0.00 | 33 | 1023.4 |
| 20260906165443 | 69 | 164 | 3.0 | 3.0 | 0.00 | 0.00 | 0.00 | 31 | 1023.4 |
| 20260906164938 | 69 | 120 | 4.0 | 4.0 | 0.00 | 0.00 | 0.00 | 31 | 1023.3 |
| 20260906164436 | 69 | 169 | 3.0 | 4.0 | 0.00 | 0.00 | 0.00 | 31 | 1023.3 |
| 20260906163933 | 68 | 127 | 3.0 | 4.0 | 0.00 | 0.00 | 0.00 | 33 | 1023.4 |
| 20260906163428 | 67 | 144 | 2.0 | 2.0 | 0.00 | 0.00 | 0.00 | 34 | 1023.3 |
| 20260906162926 | 67 | 104 | 2.0 | 2.0 | 0.00 | 0.00 | 0.00 | 35 | 1023.4 |
| 20260906162425 | 66 | 100 | 3.0 | 4.0 | 0.00 | 0.00 | 0.00 | 36 | 1023.6 |
| 20260906161920 | 66 | 87 | 3.0 | 3.0 | 0.00 | 0.00 | 0.00 | 36 | 1023.5 |
| 20260906161419 | 65 | 113 | 3.0 | 3.0 | 0.00 | 0.00 | 0.00 | 36 | 1023.5 |
| 20260906160918 | 65 | 114 | 1.0 | 1.0 | 0.00 | 0.00 | 0.00 | 35 | 1023.5 |
| 20260906160407 | 66 | 49 | 2.0 | 2.0 | 0.00 | 0.00 | 0.00 | 35 | 1023.6 |
| 20260906155905 | 65 | 107 | 0.0 | 0.0 | 0.00 | 0.00 | 0.00 | 35 | 1023.6 |
| 20260906155359 | 65 | 97 | 2.0 | 2.0 | 0.00 | 0.00 | 0.00 | 36 | 1023.6 |
| 20260906154856 | 63 | 110 | 0.0 | 0.0 | 0.00 | 0.00 | 0.00 | 35 | 1023.7 |
| 20260906154354 | 62 | 99 | 2.0 | 2.0 | 0.00 | 0.00 | 0.00 | 38 | 1023.7 |
| 20260906153854 | 62 | 102 | 2.0 | 2.0 | 0.00 | 0.00 | 0.00 | 39 | 1024.0 |
| 20260906153353 | 60 | 132 | 1.0 | 1.0 | 0.00 | 0.00 | 0.00 | 39 | 1023.7 |
| 20260906152848 | 59 | 91 | 1.0 | 1.0 | 0.00 | 0.00 | 0.00 | 40 | 1024.0 |
| 20260906152343 | 59 | 114 | 1.0 | 2.0 | 0.00 | 0.00 | 0.00 | 41 | 1024.0 |
| 20260906151842 | 59 | 107 | 0.0 | 0.0 | 0.00 | 0.00 | 0.00 | 41 | 1023.7 |
| 20260906151338 | 58 | 108 | 1.0 | 1.0 | 0.00 | 0.00 | 0.00 | 41 | 1024.1 |
| 20260906150833 | 57 | 106 | 1.0 | 1.0 | 0.00 | 0.00 | 0.00 | 43 | 1024.1 |
| 20260906150329 | 56 | 102 | 1.0 | 2.0 | 0.00 | 0.00 | 0.00 | 44 | 1024.0 |
| 20260906145828 | 55 | 121 | 2.0 | 3.0 | 0.00 | 0.00 | 0.00 | 45 | 1024.1 |
| 20260906145326 | 54 | 107 | 1.0 | 1.0 | 0.00 | 0.00 | 0.00 | 44 | 1024.1 |
| 20260906144822 | 53 | 116 | 2.0 | 2.0 | 0.00 | 0.00 | 0.00 | 45 | 1024.2 |
| 20260906144317 | 52 | 121 | 0.0 | 0.0 | 0.00 | 0.00 | 0.00 | 45 | 1024.1 |
| 20260906143816 | 50 | 144 | 1.0 | 1.0 | 0.00 | 0.00 | 0.00 | 48 | 1024.1 |
| 20260906143313 | 51 | 142 | 2.0 | 2.0 | 0.00 | 0.00 | 0.00 | 47 | 1024.0 |
| 20260906142809 | 51 | 101 | 0.0 | 0.0 | 0.00 | 0.00 | 0.00 | 46 | 1024.0 |
| 20260906142306 | 50 | 107 | 0.0 | 0.0 | 0.00 | 0.00 | 0.00 | 48 | 1024.1 |
| 20260906141802 | 47 | 101 | 0.0 | 0.0 | 0.00 | 0.00 | 0.00 | 53 | 1024.1 |
| 20260906141256 | 45 | 85 | 0.0 | 1.0 | 0.00 | 0.00 | 0.00 | 56 | 1023.9 |
| 20260906140755 | 44 | 75 | 1.0 | 1.0 | 0.00 | 0.00 | 0.00 | 58 | 1024.0 |
| 20260906140250 | 43 | 357 | 2.0 | 2.0 | 0.00 | 0.00 | 0.00 | 58 | 1024.1 |
| 20260906135748 | 42 | 46 | 1.0 | 1.0 | 0.00 | 0.00 | 0.00 | 59 | 1023.9 |
| 20260906135238 | 42 | 2 | 2.0 | 3.0 | 0.00 | 0.00 | 0.00 | 60 | 1023.9 |
| 20260906134734 | 42 | 67 | 1.0 | 1.0 | 0.00 | 0.00 | 0.00 | 59 | 1023.9 |
| 20260906134229 | 41 | 28 | 2.0 | 2.0 | 0.00 | 0.00 | 0.00 | 60 | 1023.7 |
| 20260906133725 | 41 | 6 | 4.0 | 4.0 | 0.00 | 0.00 | 0.00 | 61 | 1023.5 |
| 20260906133220 | 40 | 356 | 1.0 | 2.0 | 0.00 | 0.00 | 0.00 | 61 | 1023.7 |
| 20260906132715 | 39 | 354 | 2.0 | 3.0 | 0.00 | 0.00 | 0.00 | 61 | 1023.7 |
| 20260906132211 | 39 | 355 | 2.0 | 2.0 | 0.00 | 0.00 | 0.00 | 62 | 1023.6 |
| 20260906131706 | 39 | 15 | 2.0 | 2.0 | 0.00 | 0.00 | 0.00 | 62 | 1023.6 |
| 20260906131200 | 38 | 49 | 1.0 | 1.0 | 0.00 | 0.00 | 0.00 | 63 | 1023.7 |
| 20260906130656 | 38 | 18 | 2.0 | 2.0 | 0.00 | 0.00 | 0.00 | 63 | 1023.5 |
| 20260906130151 | 39 | 86 | 0.0 | 0.0 | 0.00 | 0.00 | 0.00 | 63 | 1023.7 |
| 20260906125649 | 38 | 83 | 0.0 | 0.0 | 0.00 | 0.00 | 0.00 | 64 | 1023.5 |
| 20260906125148 | 38 | 81 | 2.0 | 2.0 | 0.00 | 0.00 | 0.00 | 63 | 1023.6 |
| 20260906124643 | 39 | 6 | 2.0 | 3.0 | 0.00 | 0.00 | 0.00 | 62 | 1023.3 |
| 20260906124133 | 38 | 334 | 3.0 | 3.0 | 0.00 | 0.00 | 0.00 | 62 | 1023.6 |
| 20260906123632 | 38 | 73 | 2.0 | 2.0 | 0.00 | 0.00 | 0.00 | 62 | 1023.5 |
| 20260906123127 | 38 | 329 | 3.0 | 3.0 | 0.00 | 0.00 | 0.00 | 63 | 1023.5 |
| 20260906122626 | 39 | 333 | 2.0 | 2.0 | 0.00 | 0.00 | 0.00 | 61 | 1023.3 |
| 20260906122121 | 39 | 352 | 2.0 | 2.0 | 0.00 | 0.00 | 0.00 | 60 | 1023.4 |
| 20260906121618 | 39 | 35 | 3.0 | 3.0 | 0.00 | 0.00 | 0.00 | 62 | 1023.3 |
| 20260906121114 | 39 | 0 | 4.0 | 4.0 | 0.00 | 0.00 | 0.00 | 63 | 1023.0 |
| 20260906120609 | 39 | 88 | 0.0 | 0.0 | 0.00 | 0.00 | 0.00 | 62 | 1023.1 |
| 20260906120107 | 39 | 16 | 2.0 | 2.0 | 0.00 | 0.00 | 0.00 | 63 | 1023.3 |
| 20260906115606 | 39 | 66 | 1.0 | 1.0 | 0.00 | 0.00 | 0.00 | 64 | 1023.3 |
| 20260906115102 | 39 | 66 | 2.0 | 2.0 | 0.00 | 0.00 | 0.00 | 64 | 1023.7 |
| 20260906114601 | 39 | 336 | 2.0 | 2.0 | 0.00 | 0.00 | 0.00 | 63 | 1023.4 |
| 20260906114057 | 39 | 332 | 3.0 | 3.0 | 0.00 | 0.00 | 0.00 | 65 | 1023.3 |
| 20260906113556 | 40 | 83 | 0.0 | 1.0 | 0.00 | 0.00 | 0.00 | 62 | 1023.5 |
| 20260906113052 | 40 | 359 | 3.0 | 3.0 | 0.00 | 0.00 | 0.00 | 61 | 1023.4 |
| 20260906112551 | 40 | 99 | 0.0 | 0.0 | 0.00 | 0.00 | 0.00 | 62 | 1023.5 |
| 20260906112048 | 40 | 87 | 0.0 | 0.0 | 0.00 | 0.00 | 0.00 | 62 | 1023.5 |
| 20260906111548 | 40 | 60 | 2.0 | 2.0 | 0.00 | 0.00 | 0.00 | 60 | 1023.7 |
| 20260906111043 | 40 | 10 | 2.0 | 2.0 | 0.00 | 0.00 | 0.00 | 61 | 1023.3 |
| 20260906110543 | 40 | 48 | 1.0 | 2.0 | 0.00 | 0.00 | 0.00 | 60 | 1023.3 |
| 20260906110042 | 40 | 68 | 1.0 | 1.0 | 0.00 | 0.00 | 0.00 | 60 | 1023.3 |
| 20260906105537 | 40 | 82 | 0.0 | 1.0 | 0.00 | 0.00 | 0.00 | 61 | 1023.3 |
| 20260906105033 | 41 | 3 | 3.0 | 3.0 | 0.00 | 0.00 | 0.00 | 59 | 1023.1 |
| 20260906104531 | 42 | 3 | 2.0 | 2.0 | 0.00 | 0.00 | 0.00 | 59 | 1023.4 |
| 20260906104026 | 42 | 68 | 1.0 | 1.0 | 0.00 | 0.00 | 0.00 | 58 | 1022.9 |
| 20260906103524 | 41 | 61 | 1.0 | 1.0 | 0.00 | 0.00 | 0.00 | 58 | 1023.0 |
| 20260906103020 | 41 | 55 | 1.0 | 1.0 | 0.00 | 0.00 | 0.00 | 58 | 1023.0 |
| 20260906102520 | 41 | 79 | 2.0 | 2.0 | 0.00 | 0.00 | 0.00 | 58 | 1023.0 |
| 20260906102015 | 42 | 80 | 0.0 | 1.0 | 0.00 | 0.00 | 0.00 | 57 | 1023.0 |
| 20260906101510 | 42 | 40 | 1.0 | 2.0 | 0.00 | 0.00 | 0.00 | 56 | 1023.1 |
| 20260906101005 | 43 | 60 | 2.0 | 3.0 | 0.00 | 0.00 | 0.00 | 56 | 1023.0 |
| 20260906100500 | 43 | 21 | 3.0 | 4.0 | 0.00 | 0.00 | 0.00 | 55 | 1023.0 |
| 20260906100000 | 42 | 78 | 1.0 | 1.0 | 0.00 | 0.00 | 0.00 | 56 | 1022.8 |
| 20260906095455 | 42 | 85 | 1.0 | 2.0 | 0.00 | 0.00 | 0.00 | 55 | 1022.8 |
| 20260906094950 | 43 | 1 | 3.0 | 3.0 | 0.00 | 0.00 | 0.00 | 55 | 1022.9 |
| 20260906094449 | 43 | 65 | 2.0 | 2.0 | 0.00 | 0.00 | 0.00 | 55 | 1022.9 |
| 20260906093945 | 43 | 344 | 2.0 | 2.0 | 0.00 | 0.00 | 0.00 | 56 | 1022.9 |
| 20260906093441 | 43 | 92 | 1.0 | 2.0 | 0.00 | 0.00 | 0.00 | 56 | 1023.0 |
| 20260906092936 | 43 | 18 | 1.0 | 1.0 | 0.00 | 0.00 | 0.00 | 56 | 1022.6 |
| 20260906092435 | 43 | 77 | 0.0 | 0.0 | 0.00 | 0.00 | 0.00 | 56 | 1023.0 |
| 20260906091931 | 43 | 68 | 2.0 | 2.0 | 0.00 | 0.00 | 0.00 | 55 | 1022.8 |
| 20260906091426 | 43 | 41 | 2.0 | 2.0 | 0.00 | 0.00 | 0.00 | 56 | 1022.8 |
| 20260906090923 | 43 | 89 | 0.0 | 0.0 | 0.00 | 0.00 | 0.00 | 57 | 1022.8 |
| 20260906090418 | 43 | 99 | 0.0 | 0.0 | 0.00 | 0.00 | 0.00 | 57 | 1022.8 |
| 20260906085913 | 42 | 92 | 0.0 | 0.0 | 0.00 | 0.00 | 0.00 | 58 | 1022.8 |
| 20260906085412 | 42 | 83 | 0.0 | 1.0 | 0.00 | 0.00 | 0.00 | 58 | 1023.0 |
| 20260906084911 | 43 | 19 | 2.0 | 2.0 | 0.00 | 0.00 | 0.00 | 60 | 1022.8 |
| 20260906084406 | 43 | 349 | 3.0 | 3.0 | 0.00 | 0.00 | 0.00 | 62 | 1022.8 |
| 20260906083905 | 44 | 61 | 1.0 | 1.0 | 0.00 | 0.00 | 0.00 | 58 | 1022.8 |
| 20260906083401 | 45 | 325 | 2.0 | 3.0 | 0.00 | 0.00 | 0.00 | 54 | 1022.6 |
| 20260906082900 | 46 | 351 | 3.0 | 3.0 | 0.00 | 0.00 | 0.00 | 54 | 1023.0 |
| 20260906082400 | 45 | 107 | 0.0 | 0.0 | 0.00 | 0.00 | 0.00 | 54 | 1022.9 |
| 20260906081857 | 45 | 139 | 0.0 | 1.0 | 0.00 | 0.00 | 0.00 | 54 | 1022.9 |
| 20260906081352 | 45 | 179 | 2.0 | 2.0 | 0.00 | 0.00 | 0.00 | 54 | 1022.8 |
| 20260906080848 | 45 | 73 | 1.0 | 1.0 | 0.00 | 0.00 | 0.00 | 54 | 1022.9 |
| 20260906080344 | 45 | 139 | 1.0 | 1.0 | 0.00 | 0.00 | 0.00 | 53 | 1023.0 |
| 20260906075843 | 46 | 87 | 1.0 | 1.0 | 0.00 | 0.00 | 0.00 | 52 | 1023.0 |
| 20260906075338 | 46 | 73 | 1.0 | 1.0 | 0.00 | 0.00 | 0.00 | 51 | 1022.9 |
| 20260906074834 | 46 | 101 | 0.0 | 0.0 | 0.00 | 0.00 | 0.00 | 51 | 1023.0 |
| 20260906074334 | 46 | 99 | 0.0 | 0.0 | 0.00 | 0.00 | 0.00 | 53 | 1022.8 |
| 20260906073832 | 46 | 106 | 0.0 | 0.0 | 0.00 | 0.00 | 0.00 | 53 | 1022.9 |
| 20260906073327 | 46 | 90 | 0.0 | 0.0 | 0.00 | 0.00 | 0.00 | 54 | 1023.0 |
| 20260906072824 | 45 | 273 | 2.0 | 2.0 | 0.00 | 0.00 | 0.00 | 56 | 1022.6 |
| 20260906072319 | 44 | 108 | 0.0 | 0.0 | 0.00 | 0.00 | 0.00 | 58 | 1022.9 |
| 20260906071815 | 43 | 52 | 1.0 | 2.0 | 0.00 | 0.00 | 0.00 | 59 | 1022.8 |
| 20260906071310 | 43 | 334 | 2.0 | 3.0 | 0.00 | 0.00 | 0.00 | 62 | 1022.8 |
| 20260906070807 | 43 | 14 | 3.0 | 3.0 | 0.00 | 0.00 | 0.00 | 63 | 1022.8 |
| 20260906070302 | 46 | 353 | 4.0 | 4.0 | 0.00 | 0.00 | 0.00 | 56 | 1022.9 |
| 20260906065801 | 46 | 176 | 1.0 | 2.0 | 0.00 | 0.00 | 0.00 | 53 | 1022.8 |
| 20260906065257 | 45 | 225 | 1.0 | 2.0 | 0.00 | 0.00 | 0.00 | 54 | 1022.9 |
| 20260906064752 | 46 | 251 | 2.0 | 2.0 | 0.00 | 0.00 | 0.00 | 53 | 1022.8 |
| 20260906064248 | 50 | 335 | 2.0 | 3.0 | 0.00 | 0.00 | 0.00 | 45 | 1022.8 |
| 20260906063743 | 50 | 332 | 2.0 | 3.0 | 0.00 | 0.00 | 0.00 | 44 | 1022.6 |
| 20260906063238 | 49 | 34 | 1.0 | 1.0 | 0.00 | 0.00 | 0.00 | 45 | 1022.8 |
| 20260906062733 | 49 | 75 | 1.0 | 1.0 | 0.00 | 0.00 | 0.00 | 46 | 1022.8 |
| 20260906062227 | 49 | 92 | 0.0 | 1.0 | 0.00 | 0.00 | 0.00 | 47 | 1022.6 |
| 20260906061723 | 49 | 100 | 0.0 | 0.0 | 0.00 | 0.00 | 0.00 | 47 | 1022.6 |
| 20260906061220 | 49 | 27 | 2.0 | 3.0 | 0.00 | 0.00 | 0.00 | 46 | 1022.5 |
| 20260906060715 | 50 | 64 | 3.0 | 3.0 | 0.00 | 0.00 | 0.00 | 45 | 1022.5 |
| 20260906060212 | 50 | 1 | 4.0 | 6.0 | 0.00 | 0.00 | 0.00 | 44 | 1022.8 |
| 20260906055708 | 50 | 40 | 4.0 | 4.0 | 0.00 | 0.00 | 0.00 | 44 | 1022.5 |
| 20260906055203 | 50 | 11 | 4.0 | 4.0 | 0.00 | 0.00 | 0.00 | 43 | 1022.8 |
| 20260906054658 | 50 | 11 | 3.0 | 3.0 | 0.00 | 0.00 | 0.00 | 43 | 1022.8 |
| 20260906054157 | 51 | 45 | 1.0 | 2.0 | 0.00 | 0.00 | 0.00 | 41 | 1022.8 |
| 20260906053654 | 51 | 16 | 1.0 | 1.0 | 0.00 | 0.00 | 0.00 | 41 | 1022.8 |
| 20260906053149 | 51 | 76 | 1.0 | 1.0 | 0.00 | 0.00 | 0.00 | 41 | 1022.6 |
| 20260906052645 | 51 | 57 | 1.0 | 1.0 | 0.00 | 0.00 | 0.00 | 42 | 1022.9 |
| 20260906052141 | 51 | 53 | 2.0 | 2.0 | 0.00 | 0.00 | 0.00 | 42 | 1023.0 |
| 20260906051637 | 51 | 90 | 0.0 | 0.0 | 0.00 | 0.00 | 0.00 | 41 | 1022.9 |
| 20260906051137 | 51 | 62 | 1.0 | 2.0 | 0.00 | 0.00 | 0.00 | 42 | 1022.9 |
| 20260906050633 | 51 | 129 | 0.0 | 0.0 | 0.00 | 0.00 | 0.00 | 43 | 1022.9 |
| 20260906050128 | 50 | 124 | 0.0 | 0.0 | 0.00 | 0.00 | 0.00 | 43 | 1022.8 |
| 20260906045626 | 51 | 103 | 0.0 | 0.0 | 0.00 | 0.00 | 0.00 | 43 | 1022.8 |
| 20260906045121 | 51 | 53 | 2.0 | 2.0 | 0.00 | 0.00 | 0.00 | 43 | 1022.6 |
| 20260906044617 | 51 | 100 | 0.0 | 0.0 | 0.00 | 0.00 | 0.00 | 43 | 1022.6 |
| 20260906044112 | 51 | 26 | 2.0 | 3.0 | 0.00 | 0.00 | 0.00 | 44 | 1022.6 |
| 20260906043609 | 52 | 65 | 1.0 | 1.0 | 0.00 | 0.00 | 0.00 | 44 | 1022.5 |
| 20260906043104 | 52 | 7 | 3.0 | 3.0 | 0.00 | 0.00 | 0.00 | 44 | 1022.5 |
| 20260906042603 | 52 | 1 | 3.0 | 3.0 | 0.00 | 0.00 | 0.00 | 45 | 1022.8 |
| 20260906042058 | 53 | 336 | 2.0 | 2.0 | 0.00 | 0.00 | 0.00 | 43 | 1022.6 |
| 20260906041554 | 53 | 44 | 2.0 | 2.0 | 0.00 | 0.00 | 0.00 | 43 | 1022.8 |
| 20260906041048 | 53 | 35 | 3.0 | 3.0 | 0.00 | 0.00 | 0.00 | 42 | 1022.5 |
| 20260906040543 | 53 | 328 | 3.0 | 3.0 | 0.00 | 0.00 | 0.00 | 42 | 1022.5 |
| 20260906040034 | 53 | 356 | 3.0 | 3.0 | 0.00 | 0.00 | 0.00 | 40 | 1022.4 |
| 20260906035528 | 54 | 337 | 2.0 | 3.0 | 0.00 | 0.00 | 0.00 | 39 | 1022.8 |
| 20260906035024 | 55 | 89 | 0.0 | 0.0 | 0.00 | 0.00 | 0.00 | 38 | 1022.5 |
| 20260906034519 | 56 | 81 | 1.0 | 1.0 | 0.00 | 0.00 | 0.00 | 37 | 1022.4 |
| 20260906034014 | 57 | 100 | 0.0 | 0.0 | 0.00 | 0.00 | 0.00 | 36 | 1022.4 |
| 20260906033508 | 57 | 87 | 0.0 | 0.0 | 0.00 | 0.00 | 0.00 | 37 | 1022.4 |
| 20260906033004 | 58 | 90 | 0.0 | 1.0 | 0.00 | 0.00 | 0.00 | 37 | 1022.4 |
| 20260906032500 | 59 | 71 | 1.0 | 1.0 | 0.00 | 0.00 | 0.00 | 35 | 1022.0 |
| 20260906031959 | 59 | 42 | 1.0 | 1.0 | 0.00 | 0.00 | 0.00 | 35 | 1022.3 |
| 20260906031450 | 58 | 104 | 0.0 | 0.0 | 0.00 | 0.00 | 0.00 | 36 | 1022.2 |
| 20260906030945 | 58 | 355 | 2.0 | 2.0 | 0.00 | 0.00 | 0.00 | 36 | 1022.3 |
| 20260906030439 | 59 | 59 | 1.0 | 1.0 | 0.00 | 0.00 | 0.00 | 36 | 1022.0 |
| 20260906025934 | 61 | 93 | 0.0 | 1.0 | 0.00 | 0.00 | 0.00 | 31 | 1022.2 |
| 20260906025428 | 61 | 161 | 1.0 | 2.0 | 0.00 | 0.00 | 0.00 | 31 | 1022.2 |
| 20260906024927 | 62 | 289 | 1.0 | 2.0 | 0.00 | 0.00 | 0.00 | 32 | 1021.9 |
| 20260906024427 | 62 | 269 | 4.0 | 4.0 | 0.00 | 0.00 | 0.00 | 31 | 1021.9 |
| 20260906023922 | 64 | 63 | 1.0 | 1.0 | 0.00 | 0.00 | 0.00 | 31 | 1022.0 |
| 20260906023418 | 66 | 103 | 0.0 | 0.0 | 0.00 | 0.00 | 0.00 | 28 | 1021.8 |
| 20260906022918 | 66 | 130 | 0.0 | 1.0 | 0.00 | 0.00 | 0.00 | 26 | 1021.8 |
| 20260906022413 | 67 | 134 | 0.0 | 1.0 | 0.00 | 0.00 | 0.00 | 26 | 1021.7 |
| 20260906021909 | 67 | 155 | 1.0 | 2.0 | 0.00 | 0.00 | 0.00 | 26 | 1021.8 |
| 20260906021409 | 67 | 146 | 1.0 | 2.0 | 0.00 | 0.00 | 0.00 | 26 | 1021.7 |
| 20260906020903 | 67 | 184 | 2.0 | 2.0 | 0.00 | 0.00 | 0.00 | 27 | 1021.7 |
| 20260906020403 | 68 | 184 | 2.0 | 2.0 | 0.00 | 0.00 | 0.00 | 26 | 1021.5 |
| 20260906015857 | 69 | 207 | 1.0 | 2.0 | 0.00 | 0.00 | 0.00 | 26 | 1021.8 |
| 20260906015356 | 69 | 150 | 2.0 | 3.0 | 0.00 | 0.00 | 0.00 | 26 | 1021.9 |
| 20260906014856 | 69 | 216 | 3.0 | 3.0 | 0.00 | 0.00 | 0.00 | 25 | 1021.5 |
| 20260906014356 | 70 | 206 | 3.0 | 3.0 | 0.00 | 0.00 | 0.00 | 25 | 1021.5 |
| 20260906013852 | 71 | 199 | 3.0 | 3.0 | 0.00 | 0.00 | 0.00 | 25 | 1021.7 |
| 20260906013348 | 72 | 184 | 3.0 | 3.0 | 0.00 | 0.00 | 0.00 | 24 | 1021.7 |
| 20260906012843 | 73 | 216 | 5.0 | 6.0 | 0.00 | 0.00 | 0.00 | 24 | 1021.8 |
| 20260906012338 | 74 | 203 | 6.0 | 7.0 | 0.00 | 0.00 | 0.00 | 23 | 1021.9 |
| 20260906011832 | 74 | 200 | 5.0 | 6.0 | 0.00 | 0.00 | 0.00 | 23 | 1022.0 |
| 20260906011327 | 74 | 228 | 5.0 | 7.0 | 0.00 | 0.00 | 0.00 | 23 | 1021.8 |
| 20260906010823 | 75 | 181 | 4.0 | 4.0 | 0.00 | 0.00 | 0.00 | 24 | 1021.9 |
| 20260906010319 | 76 | 211 | 5.0 | 7.0 | 0.00 | 0.00 | 0.00 | 23 | 1021.9 |
| 20260906005814 | 76 | 224 | 4.0 | 4.0 | 0.00 | 0.00 | 0.00 | 22 | 1021.9 |
| 20260906005313 | 77 | 204 | 9.0 | 11.0 | 0.00 | 0.00 | 0.00 | 22 | 1021.8 |
| 20260906004813 | 77 | 197 | 6.0 | 9.0 | 0.00 | 0.00 | 0.00 | 22 | 1021.9 |
| 20260906004312 | 77 | 197 | 11.0 | 14.0 | 0.00 | 0.00 | 0.00 | 20 | 1021.9 |
| 20260906003808 | 77 | 226 | 15.0 | 19.0 | 0.00 | 0.00 | 0.00 | 21 | 1022.0 |
| 20260906003303 | 78 | 199 | 11.0 | 14.0 | 0.00 | 0.00 | 0.00 | 21 | 1021.9 |
| 20260906002759 | 78 | 204 | 7.0 | 9.0 | 0.00 | 0.00 | 0.00 | 21 | 1021.9 |
| 20260906002258 | 78 | 213 | 9.0 | 10.0 | 0.00 | 0.00 | 0.00 | 21 | 1021.9 |
| 20260906001754 | 79 | 187 | 5.0 | 6.0 | 0.00 | 0.00 | 0.00 | 20 | 1022.0 |
| 20260906001254 | 78 | 183 | 6.0 | 8.0 | 0.00 | 0.00 | 0.00 | 20 | 1021.9 |
| 20260906000749 | 78 | 204 | 11.0 | 14.0 | 0.00 | 0.00 | 0.00 | 19 | 1021.9 |
| 20260906000244 | 78 | 184 | 12.0 | 14.0 | 0.00 | 0.00 | 0.00 | 20 | 1021.9 |
| 20260905235739 | 79 | 179 | 7.0 | 9.0 | 0.00 | 0.00 | 0.00 | 20 | 1021.8 |
| 20260905235238 | 79 | 197 | 8.0 | 9.0 | 0.00 | 0.00 | 0.00 | 19 | 1021.7 |
| 20260905234734 | 79 | 182 | 8.0 | 9.0 | 0.00 | 0.00 | 0.00 | 19 | 1021.9 |
| 20260905234229 | 79 | 193 | 7.0 | 8.0 | 0.00 | 0.00 | 0.00 | 19 | 1021.7 |
| 20260905233724 | 79 | 224 | 12.0 | 14.0 | 0.00 | 0.00 | 0.00 | 20 | 1021.8 |
| 20260905233223 | 79 | 212 | 12.0 | 15.0 | 0.00 | 0.00 | 0.00 | 19 | 1021.8 |
| 20260905232719 | 80 | 199 | 11.0 | 13.0 | 0.00 | 0.00 | 0.00 | 19 | 1021.7 |
| 20260905232214 | 79 | 195 | 9.0 | 9.0 | 0.00 | 0.00 | 0.00 | 19 | 1021.8 |
| 20260905231710 | 79 | 197 | 11.0 | 13.0 | 0.00 | 0.00 | 0.00 | 19 | 1021.9 |
| 20260905231205 | 79 | 215 | 11.0 | 13.0 | 0.00 | 0.00 | 0.00 | 19 | 1021.9 |
| 20260905230701 | 79 | 200 | 10.0 | 13.0 | 0.00 | 0.00 | 0.00 | 19 | 1022.0 |